sat.trackr.live / text

‹ back to catalog

STARLINK-30039

NORAD 57468 · 2023-107M

PAYLOAD ACTIVE UNKNOWN

§ Identity

Operator
Country
US
Launch date
2023-07-28
Launch site
AFETR
Launch vehicle
Mass (kg)
RCS (m²)

Purposes: comms

External: N2YO · Heavens-Above · Gunter

§ Orbital elements

Epoch: 2026-09-20T14:25:58.175328Z

Period
94.27 min
Inclination
43.0057°
Eccentricity
0.0001742
Mean motion
15.27579488 rev/d
Perigee alt
481.9 km
Apogee alt
484.2 km
Semi-major
6,861.2 km
B*
8.3857e-6
RAAN
315.5722°
Arg perigee
259.9252°
Mean anomaly
100.1404°
Rev number
17,495

§ Raw data

STARLINK-300391 57468U 23107M   26263.60136777 -.00000032  00000+0  83857-5 0  99902 57468  43.0057 315.5722 0001742 259.9252 100.1404 15.27579488174956

JSON: /api/v1/satellites/57468 · /tle

For live sub-satellite position, see the globe view (requires WebGL).

§ Visibility from observer

Set your observer location to see the next 7 days of passes ≥ 10°. The values pass through the URL so the page stays shareable.

No JS? Fill the form by hand. The geolocation button needs JavaScript.